THOR ABLESTAR DEB, 150

Orbit data source: Space-Track

THOR ABLESTAR DEB, 150 is space debris in LEO originally from a launch on Thu, 29 Jun 1961 UTC launched from the Air Force Eastern Test Range (AFETR). Debris objects in space refer to the collection of defunct objects orbiting the Earth. Examples of debris include non-operational satellites, rocket bodies, and fragments generated from explosions, collisions, or faulty payload assembly.

Loading next visibility...
Identifier
150, 1961-015AL
Orbit
LEO
Country
Flag of USUS
Related business
Manufacturer
Unknown
Mission
Spacecraft
Bus & Motor
Unknown
Mass
Unknown
Launch date (UTC)
1961-06-29 (64 years ago)
Launch vehicle
Unknown
Launch site
Air Force Eastern Test Range (AFETR)
Object type
Payload
Rocket body
Debris
Shape & HBR
Unknown
Radar Cross Section
Medium (>0.1 m² and <1 m²)

Expand to show TLE details & history
Last TLE update: 1 day ago

TLE from 1 day ago
0 THOR ABLESTAR DEB
1 00150U 61015AL  25245.03983261  .00000931  00000-0  90595-3 0  9993
2 00150  66.2453 253.8233 0050841  59.6306 300.9777 13.83521220 68630
Epoch: 2025-09-02T00:57Z
TLE epoch observation values (Epoch: 2025-09-02T00:57:21.537Z)
Latitude
-0°
Longitude
-101.95323°
Altitude
934.408 km
Speed
7.395 km/s
True Right ascension
16h 55m 17s
True Declination
0° 00' 00"
Sunlit
Object was in daylight at epoch
Visualization orbit readout
Latitude
Unknown
Longitude
Unknown
Altitude
Unknown
Speed
Unknown
Apparent Right ascension
Unknown
Apparent Declination
Unknown
Sunlit
N/A
Visualization observer readout
Local Sidereal Time
19:26:18
Azimuth
Unknown
Elevation
Unknown
Doppler factor
Unknown
Orbital elements
Apogee altitude
987.143 km
Perigee altitude
912.63 km
Semi-major axis
7,328.024 km
Eccentricity
0.00508
Inclination
66.2453°
RAAN
253.8233°
Arg. of periapsis
59.6306°
True anomaly
300.47657°
Mean anomaly
300.9777°
Eccentric anomaly
300.7273°
Mean motion
3.45989 °/min
Orbital period
104.05 mins
BSTAR
0.00090595
Loading maneuver chart data...
Computing Atmospheric mass density...

Documentation

Showing up to 5 results
|